Retour au catalogue

SL-8 DEB *

ActifVLEO
NORAD 18504·DEBRIS·🇷🇺 Russia

Lancé Sep 29, 1976 depuis Plesetsk Cosmodrome

Loading…

Prochains Passages (prochaines 24 heures)

TLE

FraisSource: Space-Track

Époque: Sep 14, 2026, 06:46 UTC

1 18504U 76098E   26257.28200755  .00009211  00000-0  55587-3 0  9995
2 18504  74.0243 356.7039 0006486 113.8823 278.3236 15.10818123209050

Suivez SL-8 DEB * en temps réel avec AllMySat

Download on the App Store